Temp
-17 -17 -17 -17 -16 -16 -16 -17 -18 -19 -20 -21 -23 -24 -24 -24 -24 -24 -25 -25 -25 -25 -25 -25 -25 -25 -25 -25 -26 -26 -26 -25 -25 -25 -24 -24 -22 -19 -19 -18 -18 -18 -17 -17 -15 -14 -15 -15 -14 -13 -12 -11 -11 -11
-18 -17 -17 -17 -17 -17 -17 -17 -18 -19 -20 -20 -21 -22 -23 -23 -23 -23 -24 -24 -24 -24 -24 -25 -25 -25 -25 -25 -25 -25 -26 -26 -25 -25 -24 -23 -21 -21 -19 -19 -18 -18 -17 -17 -16 -15 -14 -15 -14 -12 -13 -11 -11 -11
-17 -17 -17 -17 -17 -17 -17 -17 -18 -18 -20 -21 -20 -21 -22 -22 -22 -22 -23 -23 -23 -23 -24 -24 -24 -25 -25 -25 -25 -25 -25 -25 -25 -25 -24 -23 -22 -22 -20 -20 -18 -18 -17 -17 -16 -14 -15 -15 -14 -13 -13 -12 -11 -11
-17 -17 -17 -17 -17 -17 -17 -17 -18 -18 -19 -20 -21 -21 -21 -22 -22 -22 -23 -23 -23 -23 -24 -24 -24 -24 -24 -24 -25 -25 -25 -25 -25 -25 -24 -23 -22 -22 -21 -20 -18 -18 -17 -17 -16 -15 -15 -15 -15 -14 -13 -13 -12 -11
-17 -17 -17 -17 -17 -17 -17 -17 -18 -18 -19 -20 -21 -21 -21 -21 -21 -22 -22 -23 -23 -23 -23 -24 -23 -24 -24 -24 -24 -24 -24 -24 -25 -24 -25 -24 -23 -22 -22 -21 -19 -19 -18 -17 -16 -16 -15 -15 -15 -14 -14 -13 -12 -12
-17 -17 -17 -17 -17 -17 -17 -17 -17 -18 -18 -19 -20 -21 -21 -21 -21 -21 -22 -22 -22 -22 -23 -23 -23 -23 -23 -23 -24 -24 -24 -24 -24 -24 -24 -24 -24 -23 -22 -21 -21 -19 -18 -17 -16 -16 -15 -14 -15 -15 -14 -14 -13 -12
-17 -17 -17 -17 -17 -17 -17 -17 -17 -17 -18 -18 -19 -20 -21 -21 -21 -20 -21 -21 -21 -22 -22 -23 -22 -22 -23 -23 -23 -23 -24 -24 -24 -24 -24 -24 -24 -23 -22 -21 -21 -19 -19 -18 -16 -15 -15 -14 -14 -14 -14 -14 -14 -13
-18 -17 -17 -17 -17 -17 -17 -17 -17 -17 -17 -18 -18 -19 -20 -21 -20 -20 -20 -20 -21 -21 -21 -21 -21 -22 -22 -22 -22 -23 -23 -24 -24 -24 -24 -24 -24 -23 -22 -22 -21 -20 -19 -19 -16 -16 -16 -15 -14 -14 -14 -14 -14 -13
-18 -18 -17 -17 -17 -17 -17 -17 -17 -17 -17 -18 -18 -18 -19 -20 -20 -21 -21 -20 -20 -21 -21 -20 -21 -21 -21 -22 -22 -22 -23 -23 -23 -23 -23 -23 -23 -23 -23 -22 -21 -19 -18 -18 -18 -16 -15 -15 -15 -14 -14 -13 -13 -13
-18 -18 -18 -17 -17 -17 -17 -17 -17 -17 -17 -17 -18 -18 -18 -19 -20 -21 -21 -21 -21 -20 -20 -21 -21 -21 -21 -21 -22 -22 -22 -23 -23 -23 -23 -23 -23 -23 -23 -22 -21 -20 -18 -17 -18 -17 -16 -16 -15 -14 -14 -14 -13 -13
-18 -18 -18 -18 -18 -18 -17 -17 -17 -17 -17 -17 -18 -18 -18 -18 -19 -20 -21 -21 -21 -20 -20 -20 -21 -21 -21 -22 -22 -22 -22 -22 -22 -23 -23 -23 -23 -23 -23 -21 -21 -20 -17 -17 -18 -18 -17 -16 -15 -14 -14 -14 -14 -14
-18 -18 -18 -18 -18 -18 -18 -17 -17 -17 -17 -17 -18 -18 -18 -18 -18 -19 -20 -21 -21 -21 -20 -21 -20 -21 -21 -21 -22 -22 -22 -22 -22 -22 -23 -23 -23 -23 -23 -22 -21 -20 -19 -17 -17 -17 -18 -17 -16 -15 -14 -15 -14 -14
-18 -18 -18 -18 -19 -18 -18 -18 -17 -17 -17 -17 -17 -18 -18 -18 -18 -18 -19 -20 -21 -21 -21 -21 -21 -21 -21 -21 -22 -22 -22 -22 -22 -21 -22 -22 -22 -22 -22 -22 -21 -21 -20 -18 -17 -17 -17 -17 -16 -16 -15 -15 -15 -14
-18 -18 -18 -19 -19 -18 -18 -18 -18 -18 -17 -17 -18 -18 -18 -19 -19 -19 -19 -19 -20 -20 -21 -21 -21 -21 -21 -21 -21 -21 -22 -22 -22 -22 -22 -22 -22 -22 -21 -21 -21 -20 -19 -18 -18 -18 -17 -17 -17 -16 -16 -15 -15 -14
-19 -18 -19 -19 -19 -19 -19 -19 -18 -18 -18 -17 -18 -18 -18 -18 -19 -19 -19 -19 -19 -20 -20 -21 -21 -21 -21 -21 -22 -22 -22 -22 -21 -21 -21 -21 -21 -21 -21 -21 -21 -21 -20 -19 -19 -18 -17 -16 -16 -17 -17 -17 -15 -15
-19 -19 -18 -19 -19 -19 -19 -19 -18 -18 -18 -18 -18 -18 -18 -18 -18 -19 -19 -19 -19 -19 -20 -20 -21 -21 -21 -22 -22 -22 -22 -22 -21 -21 -21 -21 -21 -20 -20 -20 -21 -20 -20 -21 -19 -19 -18 -18 -16 -16 -16 -16 -16 -16
-19 -19 -19 -19 -20 -19 -19 -19 -19 -19 -19 -18 -18 -18 -19 -18 -18 -18 -19 -19 -19 -19 -19 -19 -20 -21 -21 -21 -21 -22 -22 -21 -22 -21 -21 -22 -21 -21 -21 -20 -20 -20 -20 -20 -21 -20 -19 -19 -18 -17 -16 -15 -15 -15
-20 -20 -19 -19 -20 -20 -20 -19 -19 -19 -19 -19 -19 -19 -19 -19 -18 -18 -18 -18 -19 -19 -20 -20 -20 -20 -20 -21 -21 -21 -22 -21 -21 -21 -21 -21 -21 -22 -22 -21 -21 -20 -20 -20 -20 -20 -19 -19 -19 -19 -18 -16 -16 -15
-20 -20 -20 -20 -20 -20 -20 -20 -20 -19 -19 -19 -19 -19 -19 -19 -19 -19 -19 -19 -19 -20 -20 -21 -20 -20 -20 -21 -21 -21 -21 -21 -21 -21 -21 -21 -21 -21 -22 -22 -22 -21 -20 -20 -20 -20 -19 -19 -19 -19 -19 -18 -17 -16
-21 -21 -21 -21 -21 -21 -20 -20 -20 -20 -20 -20 -20 -19 -19 -19 -19 -19 -19 -19 -19 -20 -21 -21 -21 -21 -21 -21 -21 -21 -21 -21 -22 -22 -22 -21 -21 -22 -22 -22 -22 -22 -22 -21 -21 -20 -20 -20 -19 -19 -19 -19 -19 -19
-20 -21 -21 -21 -21 -21 -21 -20 -20 -20 -20 -20 -20 -20 -20 -20 -20 -20 -20 -19 -19 -20 -20 -20 -20 -21 -21 -21 -21 -21 -22 -22 -22 -22 -22 -22 -22 -21 -22 -22 -22 -22 -22 -21 -21 -21 -20 -20 -20 -19 -19 -18 -18 -17
-21 -21 -21 -20 -21 -21 -21 -21 -21 -20 -20 -20 -20 -20 -20 -20 -20 -20 -19 -20 -20 -20 -19 -20 -20 -20 -21 -21 -21 -22 -22 -22 -23 -23 -24 -23 -23 -23 -22 -22 -23 -23 -22 -22 -22 -21 -21 -21 -20 -20 -19 -18 -18 -17
-21 -21 -21 -20 -20 -20 -20 -21 -21 -21 -21 -21 -21 -21 -21 -20 -20 -20 -20 -20 -20 -20 -20 -20 -20 -20 -20 -21 -22 -22 -23 -23 -23 -23 -24 -24 -24 -24 -23 -23 -23 -24 -24 -23 -23 -22 -22 -21 -21 -20 -20 -20 -19 -19
-21 -21 -21 -20 -20 -20 -21 -21 -21 -21 -21 -21 -21 -21 -21 -21 -20 -20 -21 -21 -21 -20 -20 -20 -21 -21 -21 -21 -22 -23 -23 -24 -24 -24 -24 -24 -24 -25 -25 -25 -24 -24 -25 -24 -24 -24 -24 -23 -22 -21 -22 -22 -21 -20
-21 -21 -21 -20 -21 -20 -21 -21 -21 -22 -22 -22 -21 -21 -21 -21 -20 -20 -21 -20 -20 -21 -21 -20 -20 -21 -21 -22 -22 -23 -24 -24 -25 -25 -25 -25 -25 -25 -25 -25 -24 -25 -25 -25 -25 -24 -24 -24 -24 -23 -22 -22 -22 -22
-21 -21 -21 -21 -21 -21 -21 -21 -21 -22 -22 -22 -22 -22 -21 -21 -21 -20 -21 -21 -21 -21 -21 -21 -21 -22 -22 -23 -23 -24 -24 -24 -25 -25 -26 -26 -26 -26 -26 -26 -25 -25 -25 -26 -26 -26 -25 -25 -24 -24 -23 -23 -22 -22
-21 -21 -21 -21 -22 -22 -21 -22 -22 -22 -22 -21 -22 -22 -21 -21 -21 -21 -21 -21 -21 -21 -21 -22 -22 -23 -23 -24 -24 -25 -25 -25 -26 -26 -26 -26 -26 -26 -26 -26 -26 -26 -26 -26 -26 -26 -26 -26 -25 -25 -24 -24 -23 -23
-22 -22 -22 -23 -23 -22 -22 -22 -22 -22 -22 -22 -22 -22 -21 -21 -21 -21 -21 -21 -21 -22 -22 -22 -23 -24 -24 -25 -25 -26 -26 -26 -27 -27 -27 -27 -27 -27 -27 -27 -27 -27 -26 -26 -26 -27 -27 -27 -26 -26 -26 -25 -25 -24
-24 -25 -25 -24 -23 -23 -22 -22 -22 -22 -22 -22 -21 -22 -22 -22 -22 -22 -22 -22 -22 -22 -23 -24 -24 -25 -25 -26 -26 -27 -27 -27 -27 -27 -27 -27 -28 -28 -27 -27 -27 -27 -27 -27 -27 -27 -27 -27 -27 -27 -27 -26 -26 -26
-26 -27 -25 -24 -24 -23 -23 -23 -23 -22 -22 -22 -22 -22 -22 -22 -22 -22 -22 -22 -23 -23 -24 -24 -25 -26 -27 -27 -27 -27 -28 -28 -28 -28 -28 -28 -29 -29 -29 -28 -28 -28 -27 -27 -27 -27 -27 -27 -27 -27 -27 -27 -27 -27
-28 -27 -26 -25 -24 -25 -24 -23 -22 -22 -23 -23 -23 -23 -23 -22 -23 -23 -23 -23 -23 -24 -24 -25 -26 -27 -27 -28 -28 -28 -29 -29 -29 -29 -29 -29 -29 -29 -29 -29 -29 -29 -29 -29 -29 -29 -28 -28 -28 -28 -28 -28 -28 -27
-27 -27 -26 -25 -25 -25 -24 -23 -23 -23 -23 -23 -23 -23 -23 -24 -24 -23 -24 -24 -24 -25 -25 -26 -27 -27 -27 -28 -28 -28 -29 -29 -29 -30 -30 -30 -30 -30 -30 -30 -30 -30 -30 -30 -30 -29 -29 -29 -29 -29 -29 -29 -28 -28
-27 -26 -25 -24 -24 -24 -25 -24 -23 -24 -24 -24 -24 -24 -24 -24 -24 -24 -24 -25 -25 -26 -26 -27 -27 -28 -28 -28 -28 -29 -30 -30 -30 -30 -30 -30 -30 -30 -30 -30 -30 -30 -30 -31 -30 -30 -30 -30 -30 -30 -30 -29 -29 -29
Height
5704 5694 5685 5677 5669 5660 5651 5640 5629 5619 5609 5598 5590 5582 5576 5571 5565 5559 5554 5549 5543 5539 5535 5532 5528 5523 5519 5516 5512 5509 5508 5506 5507 5508 5509 5510 5517 5525 5534 5540 5547 5554 5563 5572 5586 5595 5604 5612 5624 5633 5635 5649 5658 5666
5702 5694 5685 5676 5668 5660 5651 5641 5631 5621 5612 5603 5594 5586 5580 5576 5571 5565 5559 5553 5547 5542 5539 5534 5529 5525 5522 5519 5515 5513 5511 5508 5508 5510 5512 5515 5521 5523 5531 5539 5545 5554 5559 5568 5581 5589 5597 5610 5619 5625 5635 5644 5652 5661
5699 5693 5684 5675 5667 5659 5652 5642 5633 5623 5615 5608 5599 5592 5585 5580 5575 5569 5562 5556 5551 5546 5541 5536 5532 5528 5524 5520 5518 5515 5513 5511 5509 5510 5512 5514 5518 5521 5525 5533 5539 5550 5555 5564 5577 5587 5596 5606 5613 5622 5629 5638 5647 5656
5697 5690 5683 5675 5667 5659 5651 5643 5634 5625 5617 5611 5604 5596 5589 5584 5579 5573 5566 5560 5554 5549 5544 5539 5533 5529 5525 5522 5519 5516 5514 5512 5511 5511 5512 5514 5518 5522 5525 5529 5538 5547 5553 5562 5573 5583 5592 5599 5606 5615 5623 5632 5641 5650
5693 5687 5681 5674 5666 5658 5651 5643 5635 5627 5619 5612 5606 5600 5593 5587 5582 5576 5569 5563 5557 5552 5546 5541 5536 5531 5526 5523 5521 5518 5515 5513 5513 5511 5511 5512 5515 5518 5522 5528 5536 5542 5548 5556 5566 5576 5584 5590 5598 5607 5615 5625 5635 5644
5689 5683 5678 5672 5665 5657 5650 5644 5636 5628 5620 5613 5607 5601 5596 5590 5584 5579 5572 5566 5560 5554 5548 5544 5538 5533 5529 5525 5521 5518 5515 5514 5514 5514 5514 5514 5515 5519 5524 5529 5533 5541 5548 5556 5563 5572 5580 5585 5594 5602 5610 5620 5630 5638
5685 5680 5674 5669 5663 5657 5649 5642 5636 5628 5621 5614 5608 5601 5597 5592 5587 5583 5576 5569 5561 5556 5551 5546 5541 5535 5531 5527 5524 5520 5517 5515 5515 5515 5515 5516 5515 5517 5522 5530 5533 5537 5541 5550 5558 5566 5576 5581 5588 5597 5606 5615 5623 5632
5681 5676 5670 5664 5660 5655 5648 5641 5635 5629 5620 5614 5608 5602 5597 5592 5586 5582 5577 5571 5564 5559 5554 5548 5543 5539 5535 5532 5528 5525 5522 5519 5517 5516 5516 5515 5518 5521 5523 5524 5525 5533 5541 5551 5555 5562 5571 5576 5581 5589 5599 5609 5617 5626
5674 5671 5667 5661 5655 5651 5646 5639 5633 5627 5621 5613 5607 5602 5597 5592 5586 5582 5577 5574 5568 5565 5558 5552 5548 5544 5539 5536 5533 5530 5528 5524 5521 5520 5518 5519 5520 5522 5522 5523 5525 5531 5539 5548 5551 5555 5564 5572 5576 5583 5591 5601 5611 5620
5669 5664 5661 5657 5650 5646 5642 5636 5630 5624 5618 5612 5606 5601 5596 5591 5585 5581 5577 5575 5570 5566 5561 5557 5552 5548 5545 5540 5537 5535 5532 5529 5527 5526 5524 5524 5526 5525 5522 5521 5524 5527 5534 5542 5548 5553 5560 5565 5572 5577 5585 5593 5603 5613
5664 5658 5655 5652 5645 5641 5637 5633 5627 5622 5616 5610 5604 5598 5594 5589 5585 5581 5577 5574 5571 5567 5563 5559 5556 5552 5549 5545 5542 5540 5537 5534 5532 5531 5529 5528 5526 5523 5520 5519 5520 5523 5531 5538 5545 5551 5555 5561 5565 5570 5578 5586 5594 5603
5658 5653 5649 5646 5640 5636 5632 5627 5623 5618 5613 5608 5602 5596 5592 5588 5584 5581 5576 5573 5570 5568 5564 5560 5556 5553 5551 5548 5545 5543 5541 5539 5536 5533 5530 5527 5526 5525 5523 5522 5521 5521 5526 5531 5538 5545 5549 5553 5557 5563 5570 5578 5585 5594
5650 5646 5643 5640 5634 5631 5627 5623 5618 5615 5610 5604 5600 5594 5590 5586 5581 5578 5575 5572 5568 5566 5564 5561 5558 5554 5551 5548 5546 5545 5543 5541 5538 5536 5532 5529 5526 5525 5523 5520 5518 5518 5521 5524 5528 5534 5539 5544 5550 5554 5559 5566 5575 5584
5642 5638 5636 5634 5629 5626 5622 5618 5615 5611 5607 5601 5597 5593 5587 5582 5579 5575 5573 5570 5567 5564 5561 5560 5558 5556 5552 5549 5546 5544 5543 5541 5539 5535 5534 5531 5528 5526 5523 5520 5519 5519 5517 5518 5520 5523 5529 5535 5542 5546 5549 5555 5563 5571
5634 5629 5627 5627 5623 5619 5617 5613 5609 5605 5602 5598 5593 5588 5584 5579 5576 5572 5568 5565 5563 5561 5558 5556 5554 5553 5551 5549 5546 5544 5543 5540 5538 5536 5534 5530 5527 5525 5523 5522 5521 5519 5515 5514 5515 5515 5516 5522 5529 5534 5539 5545 5551 5560
5624 5620 5617 5619 5616 5609 5610 5606 5604 5599 5596 5594 5589 5585 5581 5576 5571 5568 5565 5561 5558 5556 5554 5552 5550 5548 5547 5545 5543 5541 5540 5538 5536 5534 5533 5530 5526 5523 5520 5518 5515 5512 5511 5509 5505 5505 5509 5510 5512 5519 5526 5534 5540 5547
5613 5609 5608 5608 5609 5602 5600 5599 5596 5593 5589 5586 5583 5580 5576 5572 5567 5563 5560 5557 5554 5550 5547 5546 5544 5543 5541 5539 5537 5536 5534 5533 5532 5531 5528 5526 5525 5522 5519 5516 5513 5511 5510 5506 5503 5502 5503 5504 5505 5508 5513 5520 5526 5533
5600 5597 5596 5597 5600 5595 5592 5590 5587 5585 5582 5579 5575 5573 5571 5566 5562 5558 5554 5551 5549 5546 5542 5539 5537 5536 5534 5533 5531 5530 5528 5528 5525 5524 5523 5520 5518 5517 5516 5512 5509 5507 5504 5501 5499 5496 5496 5497 5497 5500 5501 5504 5511 5517
5587 5585 5583 5584 5586 5584 5582 5583 5581 5576 5574 5570 5567 5566 5564 5560 5555 5552 5548 5546 5542 5539 5536 5533 5530 5528 5526 5525 5523 5523 5521 5521 5519 5517 5515 5514 5513 5511 5509 5508 5505 5501 5499 5497 5495 5491 5488 5488 5489 5487 5488 5490 5497 5501
5574 5572 5571 5570 5572 5571 5571 5571 5571 5568 5565 5563 5558 5556 5556 5553 5549 5545 5542 5539 5535 5531 5527 5525 5524 5521 5519 5517 5515 5514 5513 5512 5511 5509 5508 5506 5504 5503 5501 5499 5498 5496 5493 5492 5489 5487 5484 5482 5479 5480 5484 5487 5489 5487
5560 5559 5557 5558 5559 5558 5559 5559 5559 5558 5555 5553 5551 5548 5548 5544 5541 5538 5536 5532 5528 5523 5519 5516 5515 5514 5512 5510 5509 5507 5505 5504 5502 5501 5500 5499 5497 5495 5493 5491 5490 5487 5485 5484 5484 5481 5480 5478 5475 5473 5474 5473 5473 5474
5548 5546 5545 5545 5545 5544 5550 5549 5547 5545 5542 5541 5540 5538 5538 5537 5533 5529 5528 5523 5518 5515 5512 5509 5507 5506 5504 5502 5501 5499 5498 5496 5495 5493 5492 5490 5488 5488 5486 5483 5481 5479 5477 5476 5475 5474 5471 5471 5469 5467 5465 5465 5464 5464
5534 5533 5532 5533 5532 5532 5538 5537 5537 5534 5527 5530 5529 5528 5528 5525 5525 5524 5519 5513 5508 5506 5504 5503 5501 5498 5496 5494 5492 5491 5490 5487 5486 5485 5483 5481 5479 5478 5478 5476 5473 5471 5469 5467 5465 5464 5462 5461 5460 5459 5457 5454 5453 5453
5518 5518 5519 5517 5521 5523 5525 5526 5524 5521 5519 5518 5517 5518 5517 5513 5514 5513 5510 5501 5499 5499 5497 5495 5493 5490 5487 5485 5483 5482 5481 5478 5476 5475 5474 5473 5471 5470 5469 5468 5466 5463 5461 5460 5458 5456 5454 5452 5451 5450 5449 5446 5445 5446
5502 5503 5502 5505 5510 5513 5514 5515 5512 5509 5509 5507 5506 5506 5505 5503 5503 5503 5497 5492 5493 5490 5488 5486 5484 5481 5479 5476 5474 5473 5470 5469 5468 5467 5465 5464 5464 5462 5460 5459 5458 5455 5452 5451 5450 5449 5447 5446 5444 5443 5442 5441 5442 5442
5481 5484 5486 5492 5499 5501 5502 5502 5500 5498 5497 5497 5496 5494 5493 5492 5492 5490 5486 5486 5483 5481 5479 5476 5473 5471 5469 5467 5466 5464 5460 5459 5459 5457 5456 5455 5455 5454 5452 5451 5449 5447 5444 5442 5442 5441 5440 5439 5438 5437 5435 5434 5435 5436
5461 5467 5473 5480 5484 5486 5488 5488 5486 5485 5486 5485 5485 5483 5482 5481 5481 5479 5477 5476 5473 5471 5468 5465 5463 5461 5460 5457 5455 5455 5452 5450 5450 5449 5448 5447 5446 5445 5443 5442 5440 5439 5436 5434 5433 5433 5434 5432 5432 5431 5430 5429 5428 5429
5444 5452 5460 5464 5468 5469 5470 5471 5471 5471 5473 5471 5470 5472 5472 5472 5470 5466 5466 5464 5462 5460 5458 5456 5453 5451 5450 5448 5447 5445 5443 5442 5440 5439 5439 5439 5438 5436 5433 5431 5430 5429 5428 5426 5424 5425 5426 5426 5425 5425 5424 5423 5423 5423
5431 5439 5441 5446 5448 5449 5453 5455 5457 5458 5457 5455 5457 5460 5461 5460 5457 5456 5454 5452 5451 5449 5447 5444 5442 5440 5439 5438 5436 5435 5434 5432 5431 5429 5428 5426 5426 5425 5423 5421 5420 5419 5418 5417 5416 5415 5416 5417 5417 5417 5417 5417 5417 5417
5418 5420 5425 5429 5432 5436 5440 5438 5442 5441 5441 5444 5445 5446 5447 5446 5444 5444 5442 5440 5439 5437 5435 5433 5431 5430 5428 5428 5427 5426 5424 5422 5420 5420 5418 5417 5415 5414 5413 5413 5412 5411 5410 5408 5407 5407 5406 5408 5409 5409 5409 5410 5411 5412
5401 5405 5409 5414 5418 5420 5420 5423 5425 5427 5429 5431 5431 5433 5433 5432 5432 5431 5430 5428 5426 5424 5423 5421 5420 5419 5419 5417 5416 5416 5415 5413 5411 5410 5409 5407 5407 5406 5405 5404 5403 5402 5401 5400 5399 5399 5398 5398 5399 5400 5401 5401 5401 5404
5385 5389 5393 5398 5402 5404 5407 5410 5412 5415 5417 5418 5420 5420 5421 5420 5419 5419 5416 5415 5414 5413 5411 5410 5409 5408 5407 5407 5406 5405 5404 5402 5401 5400 5399 5398 5397 5396 5395 5393 5392 5391 5391 5391 5390 5390 5391 5390 5390 5391 5391 5393 5393 5393
5373 5375 5380 5384 5388 5393 5396 5397 5400 5402 5405 5407 5408 5408 5407 5407 5407 5406 5405 5403 5402 5400 5399 5398 5397 5397 5396 5395 5394 5393 5393 5392 5391 5389 5387 5386 5385 5384 5383 5382 5381 5381 5381 5380 5380 5380 5380 5380 5380 5380 5381 5382 5384 5385
Wind_Speed
43 44 43 45 46 48 52 56 55 49 46 39 34 32 32 31 28 23 23 24 18 13 17 22 23 22 18 19 14 9 9 6 3 6 5 5 8 50 44 47 42 41 46 53 59 61 57 48 45 51 53 47 44 41
44 46 44 45 46 47 49 52 54 47 44 32 31 30 30 32 33 32 31 30 24 20 20 22 23 17 19 17 12 11 10 11 2 8 4 10 27 30 46 39 45 43 51 58 53 62 63 55 52 55 51 50 46 43
41 44 46 45 46 47 48 48 51 46 40 28 29 30 31 31 30 29 28 27 25 23 22 23 24 21 18 18 18 16 13 11 6 10 8 13 16 14 27 37 40 40 47 52 55 63 58 51 55 56 51 51 48 43
37 41 42 44 44 46 47 47 47 46 37 27 25 25 26 27 28 28 28 28 27 24 22 23 26 23 24 21 18 18 15 7 8 3 4 9 18 16 18 24 42 38 38 49 54 60 58 53 54 53 56 55 51 44
34 38 40 39 42 43 45 46 44 44 39 31 21 20 22 25 28 29 30 32 31 28 23 22 27 21 22 15 18 15 16 10 6 6 5 7 16 20 21 24 34 34 33 41 51 56 57 57 50 56 55 55 53 49
33 35 37 36 37 41 42 44 44 41 40 33 26 18 18 21 26 28 28 31 31 28 22 20 21 17 14 15 15 17 12 8 3 6 9 11 7 15 26 22 22 32 42 43 48 57 48 57 58 53 56 54 53 52
32 34 34 34 33 37 41 41 43 41 39 35 27 22 18 16 20 26 31 34 32 30 24 18 19 23 21 20 17 15 13 9 4 1 1 3 6 5 6 27 25 34 37 43 53 55 56 50 55 61 55 52 51 51
32 34 34 34 32 34 38 41 41 42 39 36 32 25 22 18 17 19 24 31 30 28 22 19 21 21 21 19 17 17 16 15 15 10 3 1 5 8 3 6 15 43 42 33 54 64 61 52 54 56 60 55 52 51
31 32 33 34 34 32 35 37 39 38 39 36 33 30 24 21 18 15 17 22 25 23 20 22 21 24 23 23 21 19 17 17 15 15 18 13 5 2 2 6 7 30 47 44 41 57 65 63 60 59 56 56 58 54
33 33 32 33 34 34 32 32 32 34 36 36 33 32 27 22 21 14 12 15 15 18 18 17 17 20 22 22 21 20 19 21 22 16 13 15 11 17 9 7 3 6 48 50 38 38 64 70 60 58 52 53 55 61
35 34 33 30 33 33 31 28 29 30 33 34 33 31 31 29 23 17 9 8 10 11 13 16 16 17 18 19 16 18 13 12 16 16 18 13 13 12 11 9 12 16 34 47 42 32 37 59 60 57 60 56 55 55
38 35 33 29 30 30 29 25 27 30 32 32 31 31 30 28 26 20 15 11 9 8 9 8 10 13 14 16 13 13 13 11 14 15 12 11 9 8 9 3 2 9 22 32 44 44 37 39 55 68 71 65 63 58
38 37 32 27 29 28 26 24 26 27 30 30 31 32 29 27 26 25 21 17 13 12 11 10 8 7 9 12 10 10 14 16 18 18 14 15 11 10 10 9 6 7 14 27 42 49 44 43 44 52 69 75 75 70
37 37 33 26 27 28 26 22 23 27 30 29 29 31 31 29 26 24 22 20 17 15 14 14 11 6 5 6 9 11 12 13 13 14 15 16 16 14 16 14 10 7 9 17 24 29 32 41 42 40 43 72 76 75
36 38 35 28 29 30 27 28 27 29 29 27 28 30 32 31 26 25 23 22 19 18 15 14 16 16 13 11 9 8 9 8 9 10 13 16 16 15 16 14 14 15 14 11 15 22 36 38 43 45 41 37 68 74
35 38 38 30 29 35 29 30 28 28 28 27 27 28 28 31 31 28 24 22 20 20 19 16 16 17 18 19 17 14 14 15 14 12 9 9 13 16 16 16 18 21 20 17 12 11 19 21 29 40 47 44 40 44
39 40 40 35 27 36 33 32 31 28 30 30 26 26 25 27 30 31 25 23 22 22 21 21 19 16 18 18 19 20 22 21 21 20 20 19 13 14 17 17 18 19 18 19 15 13 18 16 19 28 35 43 42 46
39 43 43 41 31 34 34 33 33 31 32 32 30 28 25 26 25 25 25 22 23 25 24 22 20 20 20 19 20 21 23 23 23 23 22 22 24 22 20 21 22 20 21 21 20 16 13 21 19 17 24 35 44 51
41 43 45 45 37 36 35 31 31 33 33 34 32 29 26 26 26 22 19 19 24 26 25 25 25 20 20 21 21 22 23 20 19 21 23 22 22 23 24 25 27 27 23 22 21 21 22 21 19 16 16 21 30 41
43 43 43 45 41 40 39 36 32 32 35 33 33 31 27 26 26 24 20 24 28 29 28 25 23 23 21 21 23 23 23 22 19 19 19 21 22 23 23 21 23 28 29 27 25 23 21 25 31 30 28 24 22 25
42 42 43 43 42 42 40 38 35 34 38 36 34 31 27 30 30 27 26 28 30 30 27 27 25 23 23 23 24 24 25 25 24 23 21 21 20 22 26 27 25 25 29 31 29 27 25 21 28 37 36 37 30 28
42 43 43 43 43 43 37 36 37 38 39 36 35 32 27 27 29 29 28 29 32 28 26 26 26 25 24 24 24 24 25 26 25 24 25 24 24 21 23 27 27 25 25 28 32 30 29 25 22 25 37 39 34 27
44 44 44 43 45 43 36 34 32 34 40 37 34 30 28 31 30 28 26 31 27 26 25 25 26 25 25 26 26 26 26 27 27 26 26 28 28 27 23 22 26 23 22 22 25 27 30 28 24 22 21 25 30 28
49 48 46 46 43 40 35 32 31 36 37 34 35 32 31 34 32 28 26 30 27 23 26 27 26 27 28 29 29 28 27 29 30 30 29 29 28 27 26 26 25 28 27 25 25 23 23 27 24 22 20 18 17 20
54 53 53 48 41 37 34 31 34 37 35 34 35 33 33 34 30 26 28 29 26 28 27 26 29 31 30 29 28 26 28 29 29 30 31 29 28 27 28 27 26 28 29 29 28 29 28 24 21 22 22 19 16 10
61 59 57 49 41 37 34 33 35 38 36 36 37 35 36 34 31 30 32 31 30 27 28 32 31 28 28 28 28 26 29 28 28 29 30 30 29 29 30 29 30 30 30 29 27 26 27 27 26 25 23 25 21 19
66 62 56 49 44 41 38 38 40 41 38 39 39 38 37 35 33 33 33 33 31 32 34 32 29 26 26 27 25 24 28 30 29 30 31 31 32 33 32 32 32 32 32 31 27 24 23 22 21 20 21 21 23 26
64 58 50 46 44 44 42 42 43 43 41 42 44 40 37 35 35 36 34 33 36 36 35 31 29 25 23 24 25 26 28 30 31 32 32 30 29 31 34 32 31 32 32 33 35 30 26 24 25 23 19 19 19 20
49 42 41 42 44 47 45 44 44 43 44 46 46 41 37 36 37 35 35 37 38 38 35 32 30 29 28 26 23 24 27 30 32 33 32 32 35 35 31 29 28 31 31 31 32 33 29 26 25 24 19 16 15 16
37 39 41 42 43 43 42 45 46 48 49 45 42 41 36 36 38 36 36 39 38 37 33 32 30 28 30 29 27 29 29 30 32 32 31 35 33 29 27 23 24 28 32 31 29 30 28 26 26 26 24 20 18 15
36 37 39 40 41 40 43 45 47 47 45 42 41 39 37 37 36 37 38 39 37 34 32 29 29 33 32 31 30 32 33 33 34 31 28 28 28 30 32 33 32 35 33 26 24 25 27 24 24 24 25 25 25 23
39 41 42 44 44 44 44 45 45 44 42 42 39 36 33 34 37 39 40 39 36 33 31 31 33 35 35 33 36 39 35 35 36 39 37 34 36 34 32 31 32 33 31 30 30 28 27 28 29 28 26 25 27 29
32 39 41 42 43 42 41 44 44 40 37 33 31 32 35 38 40 40 39 37 36 36 34 34 36 37 40 40 38 36 33 33 38 39 38 37 37 36 36 34 29 32 34 33 34 33 31 30 30 31 33 32 31 29
Wind_Direction
347 350 354 356 352 354 355 360 5 8 8 14 20 22 23 22 18 13 7 8 2 342 336 346 358 5 10 23 24 23 11 21 126 114 105 128 219 216 191 195 201 207 212 207 197 198 201 201 204 202 207 206 204 206
343 348 351 356 354 354 355 359 4 9 11 28 40 37 33 29 31 31 28 27 24 15 10 4 2 3 10 16 21 21 12 2 121 112 87 140 193 215 205 189 196 209 215 213 204 202 203 203 203 207 207 210 210 209
342 346 348 352 356 355 355 358 3 9 13 26 36 41 45 42 36 31 28 20 18 15 15 11 12 14 4 2 5 1 352 355 3 156 115 160 176 191 224 215 187 196 209 215 212 205 210 208 208 210 208 212 214 211
341 344 348 349 352 357 356 356 2 6 11 17 28 36 40 33 25 19 16 16 12 11 12 14 14 15 13 9 354 353 355 346 13 146 162 180 180 189 187 216 201 192 196 206 213 211 211 213 212 213 213 212 217 214
333 337 343 348 350 354 357 356 358 4 8 9 13 23 31 28 21 14 10 11 10 9 12 17 11 3 2 355 358 351 355 13 12 47 61 209 199 209 179 203 210 204 195 195 205 207 210 214 214 213 215 215 214 217
330 331 338 346 350 352 355 356 355 360 6 4 4 1 14 21 17 11 8 9 8 2 1 10 1 1 357 344 354 337 347 9 65 69 92 122 155 213 204 197 206 210 203 203 201 207 211 217 217 216 216 217 213 218
329 331 333 341 344 348 352 355 355 354 359 5 0 355 344 360 12 10 10 9 5 3 354 344 359 8 13 7 12 18 27 34 43 57 207 119 92 71 204 223 224 221 202 202 192 207 209 216 217 218 219 215 214 217
324 326 327 331 337 343 345 351 351 354 352 358 1 358 349 337 345 358 8 10 6 3 8 30 22 19 19 18 23 23 31 44 48 53 61 59 141 130 163 210 238 237 223 209 198 202 211 218 210 216 221 217 215 217
321 321 323 324 327 333 336 342 346 349 352 352 357 359 352 347 340 342 358 5 9 10 21 38 41 38 33 32 35 38 41 45 44 55 64 75 80 74 293 243 254 244 227 219 196 198 209 214 226 214 220 218 215 206
315 317 318 320 323 330 333 333 343 345 348 350 349 353 356 351 348 332 338 357 4 18 20 29 36 36 38 35 38 40 53 58 53 62 69 50 46 29 329 276 125 267 243 226 226 201 204 214 222 217 214 220 219 224
309 313 314 319 323 329 329 330 338 345 347 348 347 347 348 352 350 342 319 343 347 11 20 22 28 30 30 28 29 30 40 63 51 63 65 48 37 17 34 263 262 269 243 233 233 239 212 210 209 215 222 223 224 224
304 307 308 315 319 325 329 326 332 338 343 348 349 345 343 345 349 343 337 316 316 339 1 19 25 17 23 28 20 7 18 26 24 24 42 54 30 28 52 110 267 271 254 244 241 239 248 240 215 215 223 222 226 226
298 301 303 311 314 320 324 325 333 340 344 350 353 348 343 340 345 346 338 330 314 292 307 332 358 10 13 18 16 0 354 353 351 -0 17 28 26 34 28 31 33 306 275 266 255 253 259 246 226 225 220 225 228 227
296 297 298 304 309 311 318 320 329 334 338 345 352 352 347 339 337 340 340 334 320 307 296 292 295 340 5 10 9 357 1 3 0 14 12 16 19 26 27 26 11 333 276 263 267 269 265 256 258 239 230 225 227 231
294 292 292 294 300 304 307 308 315 319 323 332 342 351 351 347 340 338 337 333 330 320 314 300 285 281 288 301 310 322 336 337 345 2 359 353 355 4 13 8 3 2 350 293 262 257 265 262 254 252 252 253 222 221
287 287 288 287 294 295 302 304 306 312 314 318 324 335 342 344 341 335 334 330 327 324 326 317 300 291 285 285 285 282 286 292 302 319 329 332 334 339 348 349 347 349 353 342 308 259 250 243 245 251 249 252 245 237
283 281 284 284 286 291 299 300 302 307 311 312 316 321 328 330 335 336 330 332 331 325 323 323 317 308 306 296 287 281 279 281 282 286 292 292 291 300 312 321 327 329 339 344 323 294 247 237 220 227 237 243 239 247
279 279 281 281 278 282 291 296 296 302 305 307 312 318 323 318 320 324 328 329 329 325 321 312 310 310 311 308 301 291 285 289 289 285 280 278 282 286 289 292 300 307 316 329 332 304 280 254 241 227 222 225 231 235
277 277 278 278 275 273 278 285 295 298 302 303 306 309 322 317 310 311 315 321 326 322 317 309 302 298 303 303 304 304 304 306 292 286 287 283 280 284 286 283 285 291 292 300 313 314 287 282 271 257 250 236 229 230
277 276 275 274 276 275 276 281 285 292 297 300 299 303 310 309 313 311 306 321 326 323 313 304 300 294 293 296 300 304 302 308 302 296 290 293 290 283 280 281 280 279 283 284 288 293 304 285 277 265 255 249 249 247
277 276 274 274 273 274 277 282 286 288 289 293 293 297 302 301 304 305 303 314 316 311 303 298 300 297 293 293 296 300 300 304 305 301 300 296 287 283 285 286 286 277 273 273 275 275 276 285 270 262 265 272 267 256
274 273 274 275 273 273 274 282 285 288 286 288 289 292 295 296 296 300 307 311 310 301 303 298 300 299 296 293 293 293 293 298 297 289 291 294 290 291 288 290 292 289 285 272 270 268 268 273 280 279 264 256 261 271
271 271 271 272 271 274 281 280 282 280 282 287 286 287 291 295 301 307 306 308 302 296 298 307 306 301 298 296 293 290 290 291 288 287 286 292 294 294 292 287 292 294 290 290 287 280 269 269 272 277 285 269 259 269
267 268 269 268 270 274 278 281 280 280 281 286 285 289 289 292 303 311 313 293 292 304 309 308 305 301 297 294 290 290 290 285 284 285 283 286 293 291 293 297 296 294 294 290 288 294 291 281 278 272 277 293 295 278
264 264 265 267 269 271 274 275 276 279 280 282 285 288 290 293 300 309 299 292 301 303 304 303 302 300 296 289 285 285 283 283 283 280 283 287 291 293 293 294 294 294 296 296 294 292 289 284 286 275 267 270 286 308
261 262 262 264 266 268 269 270 271 275 279 280 283 286 291 297 297 300 295 304 303 305 306 305 303 300 293 286 284 284 282 284 282 283 287 288 289 291 292 291 292 291 292 294 294 293 292 289 290 289 279 270 266 270
256 259 261 260 260 262 264 267 269 271 274 276 279 283 288 295 297 294 296 300 300 304 307 307 302 296 291 287 287 284 284 286 285 285 285 286 290 290 290 289 288 287 285 287 290 294 294 292 288 286 276 277 277 272
252 253 256 258 258 258 258 258 262 267 269 272 275 278 284 287 293 293 297 299 302 306 305 302 296 287 277 280 285 283 279 281 282 283 284 287 289 289 288 284 279 280 279 279 281 283 285 287 286 289 291 278 274 278
252 251 251 250 250 251 252 255 259 264 267 267 271 280 282 283 287 289 294 297 302 302 300 296 289 284 286 291 281 268 266 273 281 282 284 281 292 297 292 286 278 275 280 282 276 275 274 277 279 279 278 280 282 272
249 250 247 246 247 249 254 255 257 260 263 269 275 277 278 283 285 287 291 296 298 296 293 288 287 284 286 286 277 280 282 281 276 280 281 284 291 290 287 289 297 297 289 286 282 275 271 267 268 268 267 265 264 266
242 244 247 246 245 249 252 252 255 259 265 269 270 274 280 282 282 286 291 293 292 290 288 283 275 274 279 287 275 283 284 274 274 277 286 283 283 285 278 279 289 301 290 285 289 284 273 266 265 264 264 263 260 257
241 238 239 240 242 245 247 250 255 260 264 267 273 276 276 278 284 287 290 290 288 283 279 275 272 272 277 278 272 280 279 270 270 279 283 281 279 284 284 293 294 290 282 285 291 292 286 267 259 261 260 258 255 254
251 241 237 240 244 247 250 253 256 259 263 267 268 269 273 277 281 284 285 284 282 282 281 278 276 274 276 279 279 274 269 268 273 269 272 281 290 286 287 292 297 296 286 290 289 288 284 283 275 261 258 257 257 257